Theta_e
327 328 327 329 325 323 327 328 325 327 329 332 330 330 331 335 332 328 337 336 332 332 329 327 326 327 327 326 332 330 326 315 316 319 322 322 321 319 316 313 318 318 320 321 323 327 327 327 327
328 328 328 327 324 328 328 325 327 326 333 331 332 334 334 335 337 337 337 338 333 332 329 328 327 328 328 327 326 325 330 323 316 315 315 317 318 317 317 315 313 317 327 320 323 324 326 326 327
328 329 329 321 322 327 329 326 326 328 330 325 332 333 335 337 337 336 336 338 335 332 333 329 329 329 329 327 327 326 331 326 320 317 316 315 313 313 313 313 313 315 323 320 317 324 324 324 323
327 329 326 325 328 325 328 325 326 329 327 326 332 331 336 336 336 336 337 336 334 332 333 334 331 330 328 327 326 328 329 328 325 321 319 317 316 315 313 312 316 315 326 322 313 315 317 320 321
327 327 324 326 328 326 324 326 328 326 327 328 327 332 336 337 337 336 335 334 333 332 332 334 333 330 327 326 326 326 328 329 332 328 326 324 319 317 315 312 312 312 313 314 310 312 315 317 324
326 325 326 328 328 325 324 327 326 327 329 330 330 333 335 337 336 336 335 334 334 332 332 332 332 330 329 327 324 323 325 327 328 330 329 328 326 323 320 316 313 313 312 311 311 311 313 316 318
322 321 325 325 327 327 324 326 327 328 328 327 327 332 336 337 336 336 335 336 335 334 332 332 331 331 330 330 330 328 325 323 324 326 326 326 325 324 322 320 317 316 315 315 312 310 310 312 315
324 319 324 325 326 328 324 327 327 327 329 328 330 331 335 337 336 336 335 335 334 335 333 331 331 331 331 331 331 330 330 329 327 324 324 324 324 324 324 321 319 317 316 315 314 314 314 312 311
322 321 324 324 325 325 325 326 327 329 329 331 331 329 328 334 336 336 335 336 335 334 332 328 329 329 329 328 329 329 330 330 329 329 327 325 324 324 324 324 322 322 320 319 320 319 317 316 316
317 319 322 321 321 322 324 327 328 330 331 333 332 330 328 333 335 335 335 335 334 331 330 328 328 327 327 327 326 326 326 326 327 328 328 328 327 325 324 324 324 324 324 324 323 323 323 323 320
318 321 319 323 324 323 324 326 328 329 330 332 331 328 328 332 334 333 332 331 328 329 329 327 327 327 325 324 324 323 324 322 322 322 323 327 327 326 325 325 325 325 325 325 324 324 324 324 324
320 318 321 323 323 323 323 326 327 329 327 330 330 326 325 328 330 329 329 328 328 329 329 329 327 324 323 322 320 321 320 321 322 324 325 324 322 324 327 327 328 328 327 327 327 326 326 325 325
318 318 323 323 323 323 323 322 324 328 326 329 330 327 326 327 327 328 328 328 331 331 330 327 326 323 323 321 321 320 319 318 319 322 326 326 327 327 325 323 325 328 333 330 329 328 328 327 326
317 317 320 322 322 323 322 322 323 325 326 327 331 327 327 327 326 328 329 330 331 330 329 328 326 322 323 321 320 318 317 317 318 319 321 325 326 328 329 329 329 326 328 328 329 329 327 328 328
317 317 317 320 321 320 322 323 323 323 326 327 331 328 328 327 329 327 327 329 330 329 329 328 324 321 321 320 318 316 315 314 315 316 321 325 326 328 329 329 328 328 324 326 327 327 327 325 325
314 313 317 315 320 320 318 323 318 322 326 327 330 329 329 328 328 329 330 329 330 329 327 324 321 320 320 318 317 315 315 314 313 315 318 321 325 327 328 328 328 327 326 326 324 326 325 325 325
311 314 316 315 317 318 318 317 316 319 322 326 329 329 328 328 329 330 330 330 331 328 324 322 321 319 318 317 316 315 315 314 312 314 316 317 323 327 328 326 326 326 326 326 325 325 325 324 324
315 315 313 314 312 316 318 318 315 316 317 321 323 327 328 328 328 329 330 330 327 323 321 321 319 318 317 315 315 315 314 313 312 313 315 317 319 323 326 327 327 325 325 325 324 324 324 325 324
312 313 312 310 309 312 314 315 315 316 314 313 315 318 322 323 326 326 324 323 324 322 321 321 318 317 316 315 314 314 313 312 313 313 314 315 317 321 325 326 325 325 324 323 321 322 322 322 322
312 312 310 310 310 311 311 310 308 309 312 315 316 315 315 316 317 317 317 322 322 322 322 319 318 317 315 315 313 314 313 313 314 314 314 315 317 322 325 325 325 324 322 321 321 321 321 321 321
311 310 309 311 310 309 308 307 309 309 310 312 313 314 315 317 317 316 315 317 320 321 320 318 317 316 315 314 313 313 312 313 314 315 317 319 322 324 325 324 324 322 321 321 321 321 321 321 321
316 309 309 311 310 308 308 305 307 306 305 306 310 312 313 314 314 315 315 314 316 318 317 317 316 315 313 313 314 312 313 314 314 315 318 320 322 324 325 324 323 320 320 319 320 320 321 322 321
313 311 311 312 311 312 311 311 307 306 308 307 308 310 310 311 311 311 311 312 313 315 315 315 315 314 313 313 313 312 313 314 314 315 317 319 322 323 324 323 322 321 319 318 318 319 320 321 321
310 311 311 310 310 309 309 308 305 306 307 306 307 309 309 310 311 311 311 312 311 313 314 314 314 314 313 313 312 312 313 315 316 316 318 321 323 323 322 320 316 313 313 313 313 313 313 313 313
312 310 307 307 308 308 306 309 307 306 305 304 305 308 309 310 311 312 311 311 311 312 313 314 314 313 313 313 312 312 313 315 316 317 318 317 316 312 310 309 308 308 307 306 305 305 305 305 304
312 308 310 308 311 307 307 310 307 306 308 309 309 309 310 310 311 312 313 312 311 312 313 313 313 313 312 312 312 312 313 313 312 312 311 310 308 307 306 305 305 305 305 304 304 303 303 303 303
313 313 308 309 297 304 307 306 304 305 305 306 308 309 310 311 311 312 313 312 311 311 313 313 312 312 311 311 310 311 311 310 310 309 308 307 306 305 305 305 304 304 303 302 302 301 300 300 300
312 310 311 304 306 305 308 307 307 307 307 306 305 309 311 311 311 312 312 312 311 312 312 312 312 311 310 310 310 309 309 309 309 308 307 306 305 305 304 303 303 303 302 301 300 299 298 297 297
312 313 312 311 307 307 305 306 302 305 304 305 305 308 310 311 312 312 312 312 312 312 311 311 311 310 309 309 309 308 308 308 308 307 306 305 304 303 303 303 302 302 300 300 298 297 296 295 295
312 313 313 315 309 307 308 310 304 303 303 305 307 308 308 309 310 311 312 312 312 312 312 312 311 310 309 308 308 307 307 307 307 306 305 304 303 302 302 302 302 300 299 298 296 295 294 293 293
Wind_Speed
4 2 5 4 4 5 1 2 1 4 1 0 5 4 7 5 2 3 18 10 14 14 14 12 10 8 8 9 8 4 5 9 7 7 5 4 3 1 3 6 9 10 8 9 9 7 5 3 1
2 5 7 3 5 3 3 2 5 4 12 16 11 8 5 2 5 14 18 14 12 11 13 12 9 8 8 7 6 6 6 3 5 5 5 2 1 1 3 6 5 8 7 9 8 7 5 2 1
1 6 3 4 4 4 4 3 4 7 15 2 5 7 4 3 13 17 15 15 14 11 11 10 9 7 6 6 6 7 7 4 4 6 6 6 6 5 3 3 6 6 8 5 7 7 5 3 1
3 4 5 4 3 2 3 5 5 10 2 3 10 6 6 7 12 11 15 14 15 12 11 11 8 6 5 4 5 5 5 4 4 6 6 6 5 5 5 3 3 6 8 3 5 5 5 3 2
3 4 4 4 1 1 1 9 15 5 4 6 4 4 4 10 8 15 12 14 14 13 11 11 9 6 5 4 4 4 4 3 3 2 4 5 5 6 5 3 2 3 3 3 4 2 4 5 3
3 3 4 3 2 1 3 11 10 4 5 7 7 6 3 10 13 16 11 13 11 9 9 9 9 7 5 4 4 3 3 3 2 1 0 2 3 4 5 4 2 1 2 2 3 3 1 4 3
5 4 4 6 4 2 4 11 9 9 8 4 12 4 6 13 17 15 12 10 9 7 6 7 8 8 6 4 2 2 2 2 1 0 1 2 1 2 2 2 2 1 2 3 3 3 3 3 5
3 5 4 2 5 4 7 7 9 9 3 13 8 6 6 21 21 17 14 11 8 7 5 7 7 7 6 5 4 3 3 3 2 2 3 3 3 3 3 3 2 2 2 2 3 4 4 4 5
3 4 3 7 7 5 11 5 9 6 13 6 6 7 8 24 23 20 18 16 12 10 6 7 7 6 5 4 5 4 4 4 5 4 5 5 5 5 4 4 4 3 3 4 4 5 6 6 6
5 3 6 5 3 5 11 13 15 8 10 4 6 8 22 25 24 22 21 18 15 12 9 8 7 6 4 3 2 3 4 7 8 6 7 7 7 7 7 6 6 6 6 6 6 6 7 7 7
3 3 5 2 5 6 11 8 7 13 3 11 18 18 24 25 24 22 20 17 13 10 10 8 7 5 3 2 2 3 4 5 5 7 8 9 8 8 8 7 7 7 8 7 8 8 8 8 9
2 3 0 1 5 9 11 11 6 11 2 11 17 19 24 25 25 23 21 18 16 14 10 8 7 5 4 4 3 4 5 6 6 6 8 7 8 10 10 9 8 8 9 10 10 10 10 10 10
2 4 4 5 8 11 13 6 5 12 1 9 18 23 24 24 23 21 18 16 15 15 12 10 9 8 7 7 7 8 9 10 8 9 10 10 10 9 9 10 12 10 11 11 12 12 12 12 12
0 3 3 4 4 4 6 3 6 9 9 10 20 24 25 24 23 21 21 20 19 16 14 12 13 11 11 11 10 12 14 14 14 13 11 12 12 12 12 11 11 12 14 13 14 14 14 14 14
2 2 3 3 4 3 2 1 5 6 9 16 23 25 26 25 24 24 21 20 19 17 15 16 15 14 15 13 13 14 16 17 18 17 15 14 14 14 16 16 15 14 13 17 16 16 15 16 15
4 5 2 3 1 2 3 6 4 5 9 16 23 25 26 26 26 24 22 21 20 19 19 17 17 17 15 15 15 16 18 20 20 20 19 19 18 15 15 17 18 16 18 16 18 17 19 18 18
6 3 2 7 4 1 3 6 6 8 9 12 19 23 25 26 26 26 24 24 24 23 22 21 19 18 18 18 18 20 21 23 21 21 20 20 20 17 16 15 16 18 19 18 18 18 19 19 19
5 5 4 5 2 3 1 7 6 3 12 18 18 21 25 26 29 25 26 27 27 27 26 24 21 20 19 18 20 22 24 24 22 22 22 20 20 19 19 18 19 19 19 18 17 19 19 20 19
6 4 4 2 2 1 6 6 12 12 10 14 21 26 27 28 28 29 28 28 30 31 29 27 24 22 19 18 20 24 23 20 21 22 21 20 20 20 20 18 18 18 19 19 18 19 22 21 20
4 4 4 2 2 1 4 9 10 9 11 27 28 25 26 27 28 29 28 33 34 34 32 30 27 24 20 18 22 23 21 18 18 18 17 16 17 18 16 15 17 17 16 14 13 14 13 14 16
3 5 4 3 3 2 5 7 7 9 12 24 28 32 35 38 37 33 31 29 34 35 34 30 27 23 20 18 21 22 19 18 16 15 13 12 14 16 17 16 17 16 15 16 16 16 16 16 17
4 5 5 5 4 4 2 6 5 7 9 8 27 33 38 40 39 38 35 32 32 32 31 28 25 22 19 21 20 20 17 17 16 14 13 11 12 14 17 17 16 14 15 15 17 19 17 17 20
5 6 7 4 3 2 0 3 6 2 7 13 20 31 33 33 32 31 30 38 37 33 31 28 24 21 20 22 20 17 15 15 14 13 12 10 11 12 13 14 15 16 16 15 17 17 17 18 19
8 7 7 5 3 3 7 7 5 5 7 6 9 18 19 18 16 20 24 28 30 36 32 27 24 23 21 21 19 15 13 12 12 11 11 10 10 10 12 13 13 13 14 14 15 15 16 17 17
3 7 2 3 0 7 1 4 11 6 10 10 14 20 10 9 11 16 16 23 26 34 33 29 27 23 21 20 17 14 12 11 11 11 10 10 9 9 9 11 12 12 13 14 15 16 17 17 18
5 6 5 7 5 3 2 7 6 8 17 20 21 23 24 22 21 17 14 17 22 30 30 28 24 21 20 18 16 13 12 11 11 11 10 9 9 10 11 12 13 14 15 16 17 18 19 20 20
5 6 5 5 3 3 4 7 9 11 12 12 13 13 16 16 16 14 13 14 17 25 27 23 21 20 19 19 17 15 14 13 13 13 12 12 12 12 13 13 13 14 16 17 18 20 21 21 21
6 8 3 2 1 4 5 5 7 5 6 9 8 10 13 12 9 9 10 12 15 19 20 20 20 19 19 20 18 16 15 15 15 15 16 16 15 14 14 14 15 15 16 18 19 20 21 21 20
4 4 4 5 5 5 2 6 7 7 7 8 9 12 10 9 8 8 8 9 12 16 19 20 20 20 21 20 18 18 17 17 18 18 19 19 18 17 17 16 16 17 17 18 19 19 19 18 18
4 5 11 4 5 3 2 9 4 6 5 3 7 6 6 6 4 4 6 9 14 17 20 20 20 20 21 21 21 21 20 20 20 21 22 22 21 21 20 19 19 19 18 18 18 17 16 16 15
Wind_Direction
356 158 163 155 60 67 97 236 183 128 75 342 135 156 139 71 135 181 135 136 154 157 154 153 144 128 119 121 125 94 78 98 122 141 148 148 141 121 77 108 121 120 147 145 142 126 118 126 134
342 149 148 120 90 83 265 243 168 174 136 109 89 94 67 83 115 138 143 139 151 157 152 152 140 129 116 109 120 127 129 98 104 121 143 150 180 122 75 100 120 102 83 158 150 152 149 148 98
108 165 151 94 108 155 176 197 170 123 138 110 109 84 87 108 133 142 155 152 153 157 156 153 147 139 125 114 115 127 138 108 95 95 104 103 93 95 99 100 103 119 94 130 167 171 169 173 241
182 136 68 82 134 201 186 156 138 140 130 117 120 71 97 120 133 144 145 152 153 157 160 165 157 149 135 119 115 119 124 104 100 95 92 80 76 69 78 99 93 120 108 113 149 177 195 207 278
151 102 67 77 73 208 242 141 153 139 127 136 134 142 91 153 153 149 144 152 158 160 157 165 166 159 150 137 127 125 121 118 126 75 55 54 56 51 54 71 74 76 97 78 75 128 185 189 96
103 92 73 130 171 111 89 148 151 139 149 143 116 105 129 167 161 152 145 147 151 160 158 166 173 168 161 147 139 131 121 120 128 192 344 10 17 22 33 41 66 5 342 6 19 3 238 219 257
99 79 138 133 141 98 156 157 168 148 134 164 139 97 144 161 159 154 144 152 164 174 184 177 182 182 184 185 179 161 152 143 178 266 294 313 321 336 348 25 35 27 2 338 341 334 338 276 271
68 90 112 142 170 184 156 135 157 136 134 143 146 164 175 166 162 162 161 175 187 195 201 202 194 198 203 213 228 238 241 235 234 252 270 286 296 298 323 346 352 315 316 330 339 346 336 319 296
50 65 153 177 156 185 163 132 156 139 144 175 194 172 168 164 168 171 175 187 196 197 194 181 191 193 196 221 241 253 259 261 258 260 262 267 277 282 287 296 297 304 302 310 325 331 324 320 316
61 91 180 172 187 177 172 155 160 151 152 189 186 170 161 171 175 181 185 192 198 193 181 170 170 167 166 175 212 251 280 289 274 272 270 268 265 265 266 271 279 285 293 296 303 308 314 321 317
11 158 174 181 183 187 160 149 175 143 208 197 184 166 170 177 183 188 191 194 191 191 193 186 185 190 190 212 251 276 288 306 318 322 302 276 267 261 261 262 270 275 285 290 289 292 298 305 312
46 6 36 127 144 152 150 148 157 172 198 217 189 181 178 182 187 190 191 190 193 199 194 195 203 216 218 239 272 286 299 300 302 306 306 317 307 276 255 256 260 271 277 281 285 289 291 294 298
65 2 32 68 116 134 144 136 148 197 234 191 189 184 186 189 192 195 195 196 199 206 204 211 223 231 240 256 272 287 296 294 297 292 294 298 303 309 312 298 273 264 279 283 285 284 285 287 289
355 61 13 23 55 117 135 139 152 205 221 191 192 193 195 196 197 198 203 205 211 216 218 224 235 242 248 264 281 295 291 287 280 278 283 288 292 290 290 288 290 302 294 292 290 293 287 289 291
89 64 7 20 8 37 112 90 221 186 199 196 196 201 202 205 205 208 211 216 221 229 230 235 246 248 258 267 276 289 295 287 277 272 269 274 279 282 272 275 279 286 287 294 292 289 290 292 292
68 50 89 315 28 32 90 257 262 192 203 201 203 205 208 211 215 216 219 227 231 232 231 238 253 258 253 261 268 288 290 289 277 267 263 260 263 269 266 271 274 278 282 285 286 286 286 289 290
14 163 173 316 210 66 130 240 274 213 210 217 212 213 216 220 223 225 227 231 235 232 235 240 252 254 256 263 270 283 285 292 275 265 261 258 255 254 254 259 273 271 278 280 286 283 286 286 286
175 178 211 203 341 51 34 253 266 259 225 231 227 227 230 233 232 234 235 236 231 229 234 240 245 248 256 268 275 281 284 283 270 261 256 254 252 247 245 247 257 266 272 275 280 282 280 280 280
135 130 155 242 344 192 231 249 260 244 249 251 241 238 238 240 243 241 240 239 234 235 238 241 243 244 251 265 278 283 287 274 264 260 256 255 251 245 243 251 260 263 279 288 287 274 275 282 287
122 136 189 264 39 144 321 272 271 256 231 244 247 248 246 247 247 248 248 243 241 241 239 237 238 241 249 267 282 283 281 271 263 257 253 252 249 242 234 247 264 269 281 279 284 288 289 283 277
161 164 167 180 25 56 336 282 245 266 240 248 248 251 253 253 253 251 251 249 242 240 236 235 235 240 256 265 277 278 269 261 257 256 254 247 241 233 232 243 253 268 271 275 272 271 271 273 276
219 173 141 123 84 239 34 282 286 263 275 249 253 251 254 255 252 251 249 247 244 239 233 230 231 242 258 269 268 269 262 258 254 252 251 246 241 232 236 246 262 267 278 275 276 277 276 279 286
219 156 155 133 128 27 260 304 269 304 287 263 259 257 254 259 266 264 258 251 246 235 230 228 232 241 254 260 261 257 247 246 247 245 244 242 238 238 242 251 270 277 280 280 282 280 282 286 286
140 93 58 56 84 290 183 177 225 208 221 284 267 274 276 271 278 272 260 249 242 232 228 227 232 238 248 251 254 242 236 237 239 239 238 239 243 250 259 269 275 278 281 285 289 289 287 286 284
120 113 45 6 55 232 84 175 265 279 245 229 260 279 290 285 306 314 264 243 233 227 224 224 229 237 241 247 240 233 231 228 224 226 231 238 247 256 267 276 283 288 290 291 291 291 291 290 289
182 151 156 196 197 264 102 228 253 233 269 272 277 279 284 285 285 290 262 247 237 223 222 225 229 233 238 239 229 227 227 224 222 226 232 237 246 261 274 282 287 291 294 296 296 296 294 291 288
200 209 151 103 53 47 221 281 286 262 277 281 277 278 291 295 280 268 256 246 231 220 222 228 232 235 238 228 225 225 227 232 238 242 245 247 257 266 273 278 283 289 294 297 299 297 294 292 288
161 147 81 19 156 266 259 262 239 278 249 266 276 283 304 306 288 262 253 243 228 220 224 228 232 240 234 231 229 227 234 245 253 256 255 255 263 266 268 273 281 288 292 293 294 293 292 289 285
146 172 200 136 162 189 262 258 216 238 251 263 281 273 295 307 298 294 274 244 225 224 227 231 239 241 239 236 236 239 245 253 260 260 260 264 263 263 266 272 276 279 283 287 289 289 288 285 282
246 222 190 187 229 246 211 254 206 223 272 222 340 307 306 309 306 290 273 255 236 232 236 243 245 248 244 242 243 246 251 257 262 264 264 264 263 265 266 269 271 274 278 281 284 285 285 283 279